User: anonymous   Login
Location: Kunchanapalle
(16.4623°N, 80.6176°E)
Time: 04:58:05
(UTC+00:00)
Language:

Cosmos 1812 Rocket - Orbit

View from above orbital plane
View from above orbital plane
View from above satellite
View from above satellite

Ground track
Ground track

The orbit data is extracted from the following two-line orbital elements,

1 17296U 87003B   20304.12321820 +.00000098 +00000-0 +89878-5 0  9993
2 17296 082.5270 313.5960 0020392 120.4254 239.8979 14.83304868804499
Epoch (UTC): 30 October 2020 02:57:26
Eccentricity: 0.0020392
inclination: 82.5270°
perigee height: 604 km
apogee height: 633 km
right ascension of ascending node: 313.5960°
argument of perigee: 120.4254°
revolutions per day: 14.83304868
mean anomaly at epoch: 239.8979°
orbit number at epoch: 80449

The dashed part of the orbit path shows where the satellite is in the earth's shadow,  

DLR